TimeEDT,TemperatureF,Dew PointF,Humidity,Sea Level PressureIn,VisibilityMPH,Wind Direction,Wind SpeedMPH,Gust SpeedMPH,PrecipitationIn,Events,Conditions,WindDirDegrees,DateUTC
12:54 AM,80.1,64.0,58,29.97,10.0,SW,12.7,-,N/A,,Clear,230,2013-06-17 04:54:00
1:54 AM,79.0,64.0,60,29.97,10.0,SW,16.1,-,N/A,,Partly Cloudy,230,2013-06-17 05:54:00
2:54 AM,79.0,64.0,60,29.98,10.0,WSW,11.5,-,N/A,,Partly Cloudy,240,2013-06-17 06:54:00
3:54 AM,78.1,64.0,62,29.97,10.0,WSW,12.7,-,N/A,,Partly Cloudy,240,2013-06-17 07:54:00
4:54 AM,77.0,64.0,64,29.99,10.0,SW,12.7,-,N/A,,Overcast,230,2013-06-17 08:54:00
5:54 AM,77.0,64.0,64,30.01,10.0,West,10.4,-,N/A,,Overcast,260,2013-06-17 09:54:00
6:34 AM,75.2,64.4,69,30.01,1.5,WNW,3.5,-,0.16,Rain,Heavy Rain,290,2013-06-17 10:34:00
6:44 AM,73.4,66.2,78,30.02,3.0,West,5.8,-,0.18,Rain,Light Rain,260,2013-06-17 10:44:00
6:54 AM,73.9,66.0,76,30.01,10.0,Calm,Calm,-,0.18,,Overcast,0,2013-06-17 10:54:00
7:54 AM,75.0,66.0,73,30.01,10.0,SW,10.4,-,N/A,,Overcast,230,2013-06-17 11:54:00
8:54 AM,75.9,66.0,71,30.01,10.0,WSW,5.8,-,0.00,,Overcast,240,2013-06-17 12:54:00
9:54 AM,79.0,68.0,69,30.01,10.0,SW,11.5,-,0.00,,Overcast,230,2013-06-17 13:54:00
10:18 AM,75.2,66.2,73,30.00,2.5,SW,8.1,-,0.06,Rain,Light Rain,230,2013-06-17 14:18:00
10:26 AM,78.8,68.0,69,30.00,10.0,WSW,5.8,-,0.06,,Mostly Cloudy,240,2013-06-17 14:26:00
10:54 AM,80.1,69.1,69,29.99,10.0,SW,11.5,-,0.06,,Scattered Clouds,230,2013-06-17 14:54:00
11:54 AM,80.1,66.9,64,29.99,10.0,SW,8.1,-,0.00,,Mostly Cloudy,220,2013-06-17 15:54:00
12:54 PM,81.0,66.9,62,29.99,10.0,WSW,8.1,-,N/A,,Overcast,250,2013-06-17 16:54:00
1:54 PM,82.0,68.0,62,29.97,10.0,SW,5.8,-,N/A,,Mostly Cloudy,220,2013-06-17 17:54:00
2:54 PM,84.0,69.1,61,29.96,10.0,SSW,5.8,-,N/A,,Clear,210,2013-06-17 18:54:00
3:54 PM,84.9,70.0,61,29.96,10.0,SW,5.8,-,N/A,,Clear,230,2013-06-17 19:54:00
4:54 PM,82.0,66.9,60,29.95,10.0,SSW,13.8,-,N/A,,Clear,210,2013-06-17 20:54:00
5:54 PM,81.0,66.0,60,29.94,10.0,SW,9.2,-,N/A,,Clear,220,2013-06-17 21:54:00
6:54 PM,81.0,66.0,60,29.94,10.0,SSW,8.1,-,N/A,,Clear,200,2013-06-17 22:54:00
7:54 PM,78.1,66.9,68,29.94,10.0,South,9.2,-,N/A,,Clear,180,2013-06-17 23:54:00
8:54 PM,78.1,66.9,68,29.94,10.0,SSW,9.2,-,N/A,,Clear,200,2013-06-18 00:54:00
9:54 PM,77.0,66.0,69,29.96,10.0,South,12.7,20.7,N/A,,Clear,190,2013-06-18 01:54:00
10:54 PM,77.0,66.9,71,29.96,10.0,SSW,10.4,-,N/A,,Scattered Clouds,210,2013-06-18 02:54:00
11:54 PM,77.0,66.9,71,29.96,10.0,SW,13.8,-,N/A,,Clear,220,2013-06-18 03:54:00